Idaho Falls, ID

4:13 PM MST on December 07, 2016 (GMT -0700)
Fanning

Weather History for KIDA - November, 2012

Change the Weather History Date:

Saturday, November 24, 2012

  Actual Average Record
Temperature  
Mean Temperature 35 °F 28 °F  
Max Temperature 47 °F 37 °F 56 °F (1990)
Min Temperature 23 °F 19 °F -8 °F (1993)
Degree Days  
Heating Degree Days 30 37  
Month to date heating degree days 638 748  
Since 1 July heating degree days 1401 1670  
Cooling Degree Days 0 0  
Month to date cooling degree days 0 0  
Year to date cooling degree days 444 264  
Moisture  
Dew Point 27 °F    
Average Humidity 73    
Maximum Humidity 92    
Minimum Humidity 53    
Precipitation  
Precipitation 0.10 in 0.03 in 0.80 in (1981)
Month to date precipitation 0.57 0.69  
Year to date precipitation 5.75 9.34  
Sea Level Pressure  
Sea Level Pressure 30.23 in    
Wind  
Wind Speed 3 mph (NNW)    
Max Wind Speed 15 mph    
Max Gust Speed 17 mph    
Visibility 9 miles    
Events Rain    
T = Trace of Precipitation, MM = Missing Value Source: NWS Daily Summary

Daily Weather History Graph

Daily Weather History Graph

Search for Another Location

Airport or City:

Trip Planner

Search our weather history database for the weather conditions in past years. The results will help you decide how hot, cold, wet, or windy it might be!

Date:

Astronomy

Nov. 24, 2012 Rise Set
Actual Time 7:33 AM MST 4:56 PM MST
Civil Twilight 7:02 AM MST 5:27 PM MST
Nautical Twilight 6:27 AM MST 6:02 PM MST
Astronomical Twilight 5:52 AM MST 6:37 PM MST
Moon 2:47 PM MST (11/24) 3:49 AM MST (11/24)
Length of Visible Light 10h 25m
Length of Day
9h 22m
Waxing Gibbous, 87% of the Moon is Illuminated
Nov 24
Waxing Gibbous
Nov 28
Full
Dec 6
Last Quarter
Dec 13
New
Dec 19
First Quarter

Hourly Weather History & Observations

Time (MST) Temp. Windchill Dew Point Humidity Pressure Visibility Wind Dir Wind Speed Gust Speed Precip Events Conditions
12:53 AM 27.0 °F - 21.9 °F 81% 30.33 in 10.0 mi Calm Calm - N/A   Clear
1:53 AM 27.0 °F - 21.0 °F 78% 30.32 in 10.0 mi Calm Calm - N/A   Clear
2:53 AM 25.0 °F 19.3 °F 21.0 °F 85% 30.33 in 10.0 mi NE 4.6 mph - N/A   Clear
3:53 AM 25.0 °F - 21.0 °F 85% 30.32 in 10.0 mi Calm Calm - N/A   Clear
4:53 AM 23.0 °F - 19.0 °F 85% 30.30 in 10.0 mi Calm Calm - N/A   Clear
5:53 AM 25.0 °F 20.7 °F 21.0 °F 85% 30.30 in 10.0 mi NNW 3.5 mph - N/A   Clear
6:53 AM 27.0 °F - 23.0 °F 85% 30.30 in 10.0 mi Calm Calm - N/A   Clear
7:53 AM 27.0 °F 21.6 °F 23.0 °F 85% 30.30 in 10.0 mi North 4.6 mph - N/A   Scattered Clouds
8:53 AM 28.9 °F - 24.1 °F 82% 30.30 in 10.0 mi Calm Calm - N/A   Mostly Cloudy
9:53 AM 30.9 °F - 26.1 °F 82% 30.30 in 10.0 mi Calm Calm - N/A   Overcast
10:53 AM 34.0 °F - 28.0 °F 79% 30.28 in 10.0 mi Calm Calm - N/A   Overcast
11:53 AM 37.9 °F - 26.1 °F 62% 30.23 in 10.0 mi Calm Calm - N/A   Overcast
12:53 PM 39.9 °F - 26.1 °F 58% 30.20 in 10.0 mi Calm Calm - N/A   Mostly Cloudy
1:53 PM 44.1 °F 39.5 °F 28.9 °F 55% 30.17 in 10.0 mi SSW 8.1 mph - N/A   Overcast
2:53 PM 46.9 °F - 30.0 °F 52% 30.15 in 10.0 mi SW 12.7 mph - N/A   Overcast
3:53 PM 39.0 °F 34.0 °F 30.0 °F 70% 30.18 in 10.0 mi North 6.9 mph - N/A   Overcast
4:53 PM 37.0 °F 32.4 °F 28.9 °F 73% 30.18 in 10.0 mi North 5.8 mph - N/A   Overcast
5:53 PM 37.0 °F 34.5 °F 30.0 °F 76% 30.17 in 10.0 mi North 3.5 mph - N/A   Overcast
7:53 PM 35.1 °F 31.0 °F 30.9 °F 85% 30.14 in 10.0 mi North 4.6 mph - 0.00 in   Overcast
8:53 PM 37.0 °F - 30.9 °F 79% 30.12 in 10.0 mi Calm Calm - 0.00 in Rain Light Rain
9:53 PM 37.0 °F 33.3 °F 33.1 °F 86% 30.11 in 10.0 mi South 4.6 mph - 0.00 in Rain Light Rain
10:53 PM 36.0 °F - 33.1 °F 89% 30.09 in 4.0 mi Calm Calm - 0.04 in Rain Light Rain
11:53 PM 35.1 °F - 33.1 °F 92% 30.06 in 3.0 mi Calm Calm - 0.05 in Rain Light Rain